Mc Entire JNGB Airport
KMMT : now visible

Airfield :











YOU CAN JOIN US ON...

 
LOGIN :

Register | Disclaimer

   EN    FR    IT 

 









Legend :    VFR   Marginal VFR   IFR   Intensive IFR   Very Intensive IFR
Visi :
Ceiling :
>= 8 km
>= 3000ft
5 to 8 km
1000 to 3000 ft
1500m to 5 km
500 to 1000 ft
800 to 1500m
200 to 500 ft
< 800m
< 200 ft
Symbols :   Thunderstorms  Fog  Heavy snow  Heavy precipitations  Wind > 20 kt






- Airport Elevation : 254 ft


KMMT - Mc Entire JNGB

CURRENT METAR :
  • 041458Z 08007KT 10SM FEW120 BKN160 BKN180 21/03 A3001 RMK SLP165 T02080026 52013 $

EXPIRED METARs :
  • 041356Z 07007KT 10SM BKN140 BKN170 19/03 A3000 RMK AO2A SLP161 T01870029 $
  • 041256Z 00000KT 10SM BKN140 BKN180 BKN250 14/09 A2999 RMK AO2A SLP158 T01410085 $

TAF TAF KMMT
Valid from the 04 at 15:00 until the 05 at 21:00 UTC


041500Z 0415/0521 VRB06KT 9999 FEW100 QNH2995INS TX23/0421Z TN09/0511Z



MET'MAP, your aeronautical weather chart ! - Copyright ORBIFLY December 2007 - Disclaimer

ORBIFLY MET'MAP TEAM :

Programming & Development : Alexandra Zaïnal
Concept & original design : Baudouin d'Aumeries
Assistance for programming : Marc-Olivier Méhu
Technical & hardware support : Manuel Goepfert

Contact : metmap@orbifly.com




SOURCES & CREDITS :

   NOAA       Earth
Advisory